Location: Unspecified
(48.2082°N, 0.0000°E)
Time: 00:27:58
(UTC+00:00)

A-11 Canister half - Pass Details

Date: 24 June 2019
Orbit: 1514 x 1685 km, 47.2° (Epoch: 19 July)

Event Time Altitude Azimuth Distance (km) Brightness Sun altitude
Rises 12:45:38 0° 266° (W) 4,879 11.8 63.8°
Reaches altitude 10° 12:48:48 10° 266° (W) 3,872 11.4 63.5°
Maximum altitude 12:58:42 86° 180° (S) 1,601 10.7 62.8°
Drops below altitude 10° 13:08:13 10° 93° (E) 3,736 11.0 62.0°
Sets 13:11:14 0° 93° (E) 4,701 11.4 61.7°
